Weather History for KOEB - April, 2013

Change the Weather History Date:

Monday, April 8, 2013

  Actual Average (KJYM) Record (KJYM)
Temperature  
Mean Temperature 52 °F -  
Max Temperature 67 °F 54 °F 80 °F (1991)
Min Temperature 38 °F 29 °F 5 °F (1972)
Degree Days  
Heating Degree Days 12    
Growing Degree Days 2 (Base 50)    
Moisture  
Dew Point 40 °F    
Average Humidity 74    
Maximum Humidity 90    
Minimum Humidity 51    
Precipitation  
Precipitation 0.00 in - - ()
Sea Level Pressure  
Sea Level Pressure 29.86 in    
Wind  
Wind Speed 10 mph (SE)    
Max Wind Speed 29 mph    
Max Gust Speed 38 mph    
Visibility 8 miles    
Events Rain    
Averages and records for this station are not official NWS values.
T = Trace of Precipitation, MM = Missing Value Source: NWS Daily Summary

Daily Weather History Graph

Daily Weather History Graph

Search for Another Location

Airport or City:

Trip Planner

Search our weather history database for the weather conditions in past years. The results will help you decide how hot, cold, wet, or windy it might be!

Date:

Astronomy

Apr. 08, 2013 Rise Set
Actual Time 7:10 AM EDT 8:13 PM EDT
Civil Twilight 6:42 AM EDT 8:42 PM EDT
Nautical Twilight 6:08 AM EDT 9:16 PM EDT
Astronomical Twilight 5:32 AM EDT 9:52 PM EDT
Moon 6:01 AM EDT (4/8) 6:46 PM EDT (4/8)
Length of Visible Light 14h 00m
Length of Day
13h 03m
Waning Crescent, 3% of the Moon is Illuminated
Apr 8
Waning Crescent
Apr 10
New
Apr 18
First Quarter
Apr 25
Full
May 2
Last Quarter

Hourly Weather History & Observations

Time (EDT) Temp. Windchill Dew Point Humidity Pressure Visibility Wind Dir Wind Speed Gust Speed Precip Events Conditions
12:14 AM 39.7 °F 37.6 °F 32.0 °F 74% 29.99 in 10.0 mi ENE 3.5 mph - N/A   Clear
12:34 AM 38.1 °F 34.6 °F 31.3 °F 76% 29.99 in 10.0 mi East 4.6 mph - N/A   Clear
12:54 AM 39.6 °F 36.3 °F 31.6 °F 73% 29.99 in 10.0 mi East 4.6 mph - N/A   Clear
1:14 AM 39.4 °F 35.2 °F 31.5 °F 73% 29.99 in 10.0 mi East 5.8 mph - N/A   Clear
1:34 AM 39.2 °F 35.0 °F 31.1 °F 73% 29.99 in 10.0 mi East 5.8 mph - N/A   Clear
1:54 AM 38.8 °F 33.8 °F 31.5 °F 75% 29.99 in 10.0 mi East 6.9 mph - N/A   Clear
2:14 AM 39.4 °F 34.5 °F 31.5 °F 73% 29.98 in 10.0 mi ESE 6.9 mph - N/A   Clear
2:34 AM 39.2 °F 35.9 °F 31.3 °F 73% 29.98 in 10.0 mi ESE 4.6 mph - N/A   Clear
2:54 AM 39.6 °F 34.7 °F 31.6 °F 73% 29.98 in 10.0 mi ESE 6.9 mph - N/A   Clear
3:14 AM 39.6 °F 34.7 °F 31.6 °F 73% 29.97 in 10.0 mi ESE 6.9 mph - N/A   Clear
3:34 AM 40.1 °F 34.1 °F 31.8 °F 72% 29.97 in 10.0 mi ESE 9.2 mph - N/A   Clear
3:54 AM 40.6 °F 32.7 °F 32.0 °F 71% 29.97 in 10.0 mi SE 15.0 mph 20.7 mph N/A   Clear
4:14 AM 40.6 °F 33.4 °F 32.2 °F 72% 29.96 in 10.0 mi ESE 12.7 mph 17.3 mph N/A   Clear
4:34 AM 40.1 °F 33.2 °F 32.0 °F 73% 29.96 in 10.0 mi ESE 11.5 mph - N/A   Clear
4:54 AM 39.7 °F 32.7 °F 32.0 °F 74% 29.95 in 10.0 mi ESE 11.5 mph - N/A   Clear
5:14 AM 39.6 °F 32.5 °F 32.0 °F 74% 29.94 in 10.0 mi ESE 11.5 mph - N/A   Clear
5:35 AM 39.6 °F 32.5 °F 32.0 °F 74% 29.93 in 10.0 mi ESE 11.5 mph - N/A   Clear
5:54 AM 39.7 °F 33.7 °F 32.0 °F 74% 29.92 in 10.0 mi ESE 9.2 mph - N/A   Clear
6:14 AM 39.6 °F 33.5 °F 32.2 °F 75% 29.91 in 10.0 mi East 9.2 mph - N/A   Clear
6:34 AM 40.1 °F 34.1 °F 32.4 °F 74% 29.91 in 10.0 mi ESE 9.2 mph - N/A   Clear
6:54 AM 40.3 °F 34.4 °F 32.9 °F 75% 29.90 in 10.0 mi ESE 9.2 mph - N/A   Clear
7:14 AM 41.0 °F 34.3 °F 32.9 °F 73% 29.90 in 7.0 mi ESE 11.5 mph 17.3 mph N/A   Clear
7:34 AM 41.5 °F 34.2 °F 33.1 °F 72% 29.90 in 7.0 mi SE 13.8 mph 19.6 mph N/A   Clear
7:54 AM 41.9 °F 35.0 °F 33.3 °F 71% 29.90 in 7.0 mi SE 12.7 mph 20.7 mph N/A   Scattered Clouds
8:14 AM 42.1 °F 35.2 °F 33.8 °F 72% 29.90 in 7.0 mi ESE 12.7 mph - N/A   Overcast
8:34 AM 43.2 °F 36.6 °F 34.3 °F 71% 29.89 in 7.0 mi SE 12.7 mph 17.3 mph N/A   Overcast
8:54 AM 43.7 °F 38.1 °F 34.7 °F 71% 29.89 in 7.0 mi SE 10.4 mph - N/A   Overcast
9:14 AM 43.3 °F 37.2 °F 35.2 °F 73% 29.88 in 7.0 mi SE 11.5 mph 17.3 mph N/A Rain Light Rain
9:34 AM 42.1 °F 36.1 °F 37.4 °F 83% 29.86 in 4.0 mi ESE 10.4 mph - N/A Rain Light Rain
9:54 AM 42.4 °F 36.1 °F 38.5 °F 86% 29.84 in 5.0 mi ESE 11.5 mph 17.3 mph N/A Rain Light Rain
10:14 AM 42.8 °F 35.8 °F 39.0 °F 86% 29.82 in 5.0 mi ESE 13.8 mph 18.4 mph N/A   Overcast
10:34 AM 43.5 °F 37.5 °F 39.6 °F 86% 29.80 in 5.0 mi SE 11.5 mph - N/A   Overcast
10:54 AM 44.2 °F 38.4 °F 40.6 °F 87% 29.79 in 5.0 mi SE 11.5 mph - N/A   Overcast
11:14 AM 45.7 °F 40.6 °F 41.9 °F 87% 29.79 in 5.0 mi SE 10.4 mph - N/A   Overcast
11:34 AM 45.7 °F 41.0 °F 42.3 °F 88% 29.80 in 1.5 mi SSE 9.2 mph - N/A   Overcast
11:54 AM 46.4 °F 41.5 °F 43.7 °F 90% 29.78 in 2.0 mi SSE 10.4 mph 16.1 mph N/A Rain Light Rain
12:14 PM 47.5 °F - 44.8 °F 90% 29.77 in 3.0 mi SSE 16.1 mph 21.9 mph N/A Rain Light Rain
12:34 PM 48.4 °F - 45.5 °F 90% 29.76 in 4.0 mi SSE 15.0 mph 18.4 mph N/A   Overcast
12:54 PM 49.6 °F - 46.4 °F 89% 29.76 in 5.0 mi SSE 13.8 mph 19.6 mph N/A   Overcast
1:14 PM 52.5 °F - 48.7 °F 87% 29.74 in 5.0 mi SSE 15.0 mph 20.7 mph N/A   Overcast
1:34 PM 54.5 °F - 50.0 °F 85% 29.73 in 5.0 mi SSE 13.8 mph 21.9 mph N/A   Haze
1:54 PM 56.3 °F - 50.9 °F 82% 29.71 in 7.0 mi South 13.8 mph 18.4 mph N/A   Overcast
2:14 PM 58.6 °F - 52.0 °F 79% 29.70 in 10.0 mi South 10.4 mph - N/A   Overcast
2:34 PM 61.5 °F - 52.9 °F 73% 29.69 in 10.0 mi South 10.4 mph 25.3 mph N/A   Overcast
2:54 PM 64.8 °F - 52.0 °F 63% 29.69 in 10.0 mi SW 28.8 mph 38.0 mph N/A   Overcast
3:14 PM 64.9 °F - 52.2 °F 63% 29.70 in 10.0 mi SW 20.7 mph 34.5 mph N/A   Overcast
3:34 PM 66.4 °F - 51.3 °F 58% 29.70 in 10.0 mi WSW 25.3 mph 33.4 mph N/A   Overcast
3:53 PM 66.2 °F - 49.8 °F 55% 29.71 in 10.0 mi West 24.2 mph 31.1 mph N/A   Overcast
4:14 PM 67.3 °F - 48.9 °F 52% 29.72 in 10.0 mi West 21.9 mph 34.5 mph N/A   Overcast
4:34 PM 66.9 °F - 49.3 °F 53% 29.73 in 10.0 mi West 16.1 mph 36.8 mph N/A   Overcast
4:54 PM 67.6 °F - 48.9 °F 51% 29.73 in 10.0 mi West 19.6 mph 28.8 mph N/A   Scattered Clouds
5:14 PM 67.8 °F - 49.1 °F 51% 29.74 in 10.0 mi West 20.7 mph 29.9 mph N/A   Mostly Cloudy
5:33 PM 66.7 °F - 48.4 °F 52% 29.75 in 10.0 mi West 21.9 mph 31.1 mph N/A   Scattered Clouds
5:54 PM 65.3 °F - 48.0 °F 54% 29.77 in 10.0 mi West 18.4 mph 32.2 mph N/A   Clear
6:14 PM 63.5 °F - 47.5 °F 56% 29.79 in 10.0 mi West 25.3 mph 33.4 mph N/A   Clear
6:34 PM 62.2 °F - 46.8 °F 57% 29.80 in 10.0 mi West 20.7 mph 34.5 mph N/A   Clear
6:54 PM 60.8 °F - 45.5 °F 57% 29.81 in 10.0 mi West 20.7 mph 31.1 mph N/A   Clear
7:14 PM 59.4 °F - 44.6 °F 58% 29.83 in 10.0 mi WNW 15.0 mph 24.2 mph N/A   Clear
7:34 PM 55.4 °F - 43.3 °F 64% 29.85 in 10.0 mi WNW 17.3 mph 23.0 mph N/A   Clear
7:54 PM 53.4 °F - 43.7 °F 70% 29.86 in 10.0 mi West 17.3 mph 26.5 mph N/A   Clear
8:14 PM 51.8 °F - 43.3 °F 73% 29.88 in 10.0 mi WNW 12.7 mph 20.7 mph N/A   Clear
8:34 PM 50.0 °F - 42.6 °F 76% 29.89 in 10.0 mi WNW 10.4 mph - N/A   Clear
8:54 PM 48.4 °F - 41.2 °F 76% 29.91 in 10.0 mi WNW 11.5 mph 17.3 mph N/A   Clear
9:14 PM 46.2 °F 42.7 °F 40.3 °F 80% 29.92 in 10.0 mi WNW 6.9 mph - N/A   Clear
9:34 PM 44.6 °F 41.4 °F 40.1 °F 84% 29.93 in 10.0 mi NNW 5.8 mph - N/A   Clear
9:54 PM 43.7 °F 40.3 °F 39.6 °F 85% 29.94 in 10.0 mi NNW 5.8 mph - N/A   Clear
10:14 PM 43.0 °F 40.3 °F 39.4 °F 87% 29.94 in 10.0 mi NNW 4.6 mph - N/A   Clear
10:34 PM 42.3 °F - 39.0 °F 88% 29.96 in 7.0 mi Calm Calm - N/A   Clear
10:54 PM 41.4 °F 38.4 °F 38.3 °F 89% 29.96 in 7.0 mi North 4.6 mph - N/A   Clear
11:14 PM 41.5 °F 39.6 °F 38.7 °F 89% 29.96 in 7.0 mi NNW 3.5 mph - N/A   Clear
11:34 PM 41.4 °F - 38.5 °F 89% 29.97 in 7.0 mi Calm Calm - N/A   Clear
11:54 PM 41.0 °F - 38.3 °F 90% 29.98 in 7.0 mi Calm Calm - N/A   Clear